Simultaneous Nadir Overpasses (SNOs) Predictions

Prediction of SNOs between NOAA-19 and NPP Satellite Orbit:

Table of predicted SNOs for the next 14.0 days since TLE Epoch: 7/24/2021
Index Date (NOAA-19) Time (NOAA-19) Lat,Lon (NOAA-19) SZA (NOAA-19 ) Date (NPP) Time (NPP) Lat,Lon (NPP) SZA (NPP ) Distance(km) Time Diff (sec)
1 08/02/2021 10:29:03 -77.76, 175.59 118.32 08/02/2021 10:30:09 -77.78, 178.83 118.67 76.36 66
2 08/02/2021 11:19:49 78.06, -15.41 61.78 08/02/2021 11:21:02 78.08, -15.40 61.76 1.81 73
3 08/02/2021 12:10:55 -78.07, 151.88 118.21 08/02/2021 12:11:46 -78.06, 152.00 118.26 3.12 51
4 08/02/2021 13:01:49 78.07, -40.85 61.80 08/02/2021 13:02:32 78.08, -40.79 61.79 1.62 43
5 08/02/2021 13:52:55 -78.08, 126.44 118.19 08/02/2021 13:53:17 -78.10, 126.40 118.18 2.30 22
6 08/02/2021 14:43:49 78.08, -66.29 61.82 08/02/2021 14:44:02 78.08, -66.18 61.81 2.52 13
7 08/02/2021 15:34:55 -78.09, 101.01 118.17 08/02/2021 15:34:47 -78.11, 101.02 118.16 1.20 8
8 08/02/2021 16:25:49 78.09, -91.72 61.84 08/02/2021 16:25:33 78.13, -91.78 61.88 3.68 16
9 08/02/2021 17:16:55 -78.11, 75.57 118.15 08/02/2021 17:16:17 -78.11, 75.63 118.14 1.41 38
10 08/02/2021 18:07:49 78.10,-117.16 61.87 08/02/2021 18:07:03 78.13,-117.16 61.90 2.54 46
11 08/02/2021 18:58:55 -78.12, 50.14 118.13 08/02/2021 18:57:47 -78.11, 50.25 118.12 2.63 68
12 08/02/2021 19:49:48 78.15,-142.37 61.90 08/02/2021 19:48:33 78.13,-142.55 61.93 4.81 75



Historial Predications of SNOs between NOAA-19 and NPP
